User: anonymous   Login
Location: Unspecified
(0.0000°N, 0.0000°E)
Time: 03:00:28
(UTC+00:00)
Language:

OBJECT AK - Orbit

View from above orbital plane
View from above orbital plane
View from above satellite
View from above satellite

Ground track
Ground track

The orbit is defined by the following mean orbital elements,

1 67281U          26145.45872317 +.00000000 +00000-0 +20980-3 0 00004
2 67281  97.3885 220.3658 0013601  82.7264 277.5518 15.22278084    06
Epoch (UTC): 25 May 2026 11:00:33
Eccentricity: 0.0013601
inclination: 97.3885°
perigee height: 490 km
apogee height: 508 km
right ascension of ascending node: 220.3658°
argument of perigee: 82.7264°
revolutions per day: 15.22278084
mean anomaly at epoch: 277.5518°

The dashed part of the orbit path shows where the satellite is in the earth's shadow,  

DLR